Regional Weather Roundup
Issued by NWS Sterling, VA

Home | Current Version | Previous Version | Text Only | Print | Product List | Glossary Off
Versions: 1 2 3 4 5 6 7 8 9 10 11 12 13 14 15 16 17 18 19 20 21 22 23 24 25 26 27

000
ASUS41 KLWX 220210
RWRLWX

REGIONAL WEATHER ROUNDUP
NATIONAL WEATHER SERVICE BALTIMORE MD/WASHINGTON DC
900 PM EST TUE FEB 21 2017

Note: "FAIR" indicates few or no clouds below 12,000 feet
with no significant weather and/or obstructions to visibility.
 TC=TEMPERATURE CELSIUS

 * =Non NWS site. Station does not report precipitation (e.g. rain,
    snow, etc.), thunder, or fog.

DCZ001-MDZ009-015-VAZ040>042-051-053>054-220300-
WASHINGTON METRO

CITY           SKY/WX    TMP DP  RH WIND       PRES   REMARKS
WASHINGTON NAT MOCLDY    48  39  71 S8        30.17S
DULLES         CLOUDY    48  35  60 S6        30.14S
ANDREWS AFB    MOCLDY    46  36  69 S6        30.15S
FT BELVOIR     PTCLDY    48  36  63 S3        30.16S
QUANTICO       CLOUDY    47  42  83 S3        30.18R
COLLEGE PARK*  CLOUDY    48  34  57 S5        30.17R
LEESBURG*      MOCLDY    50  39  66 MISG      30.14F
MANASSAS*      PTCLDY    46  38  73 S6        30.15S
GAITHERSBURG*  MOCLDY    46  28  49 SE6       30.19S

$$

MDZ006>007-011-014-220300-
BALTIMORE METRO

CITY           SKY/WX    TMP DP  RH WIND       PRES   REMARKS
BWI AIRPORT    CLOUDY    46  35  65 CALM      30.17R
MD SCIENCE CTR   N/A     49  34  56 MISG      30.18S
MARTIN STATE   CLEAR     46  41  81 SE5       30.19S
ANNAPOLIS      CLOUDY    46  40  79 S9        30.17S
FORT MEADE*    CLOUDY    43  32  65 CALM      30.19S

$$

MDZ012-015-019>023-220300-
MARYLAND EASTERN SHORE

CITY           SKY/WX    TMP DP  RH WIND       PRES   REMARKS
OCEAN CITY     CLOUDY    42  38  85 CALM      30.21S
SALISBURY      PTCLDY    39  35  86 SE5       30.19F
BAY BRIDGE AP* PTCLDY    46  37  71 S3        30.18R
EASTON*        MOCLDY    46  37  71 S6        30.21S

$$

MDZ017>025-220300-
SOUTHERN MARYLAND

CITY           SKY/WX    TMP DP  RH WIND       PRES   REMARKS
PATUXENT RIVER CLOUDY    45  40  82 SE7       30.18F
ST INIGOES     PTCLDY    45  39  79 SE6       30.18F
LEONARDTOWN*   CLOUDY    45  36  70 SE6       30.19S

$$

MDZ003>005-220300-
NORTH CENTRAL MARYLAND

CITY           SKY/WX    TMP DP  RH WIND       PRES   REMARKS
FREDERICK*     NOT AVBL
HAGERSTOWN APT PTCLDY    51  34  52 SE5       30.11F
WESTMINSTER*   CLOUDY    46  34  61 S6        30.14S

$$

MDZ501>502-220300-
WESTERN MARYLAND

CITY           SKY/WX    TMP DP  RH WIND       PRES   REMARKS
OAKLAND*       CLOUDY    45  32  61 SE7       30.05S
CUMBERLAND*    CLOUDY    52  34  50 NW3       30.11F

$$

VAZ025>031-220300-
SHENANDOAH VALLEY

CITY           SKY/WX    TMP DP  RH WIND       PRES   REMARKS
WINCHESTER*    CLOUDY    50  34  53 S6        30.10F
FRONT ROYAL*   CLOUDY    52  36  54 S3        30.09F
LURAY*         CLOUDY    52  37  58 SW5       30.11S
NEW MARKET*    CLOUDY    46  36  66 SW3       30.10S
STAUNTON*      PTCLDY    48  36  62 CALM      30.13F
WAYNESBORO*    CLOUDY    49  34  54 SE3       30.12F

$$

WVZ021-048>050-054>055-220300-
EASTERN WEST VIRGINIA PANHANDLE

CITY           SKY/WX    TMP DP  RH WIND       PRES   REMARKS
MARTINSBURG    MOCLDY    49  33  54 CALM      30.10F
PETERSBURG*    MOCLDY    51  42  71 CALM      30.07F

$$

VAZ036>039-050-220300-
CENTRAL FOOTHILLS

CITY           SKY/WX    TMP DP  RH WIND       PRES   REMARKS
CHARLOTTESVILL CLOUDY    54  38  54 CALM      30.13S
CULPEPER*      CLOUDY    44  37  75 CALM      30.15F
ORANGE*        PTCLDY    45  36  70 CALM      30.15F
GORDONSVILLE*  PTCLDY    46  38  74 CALM      30.13F
WARRENTON*     CLOUDY    46  34  63 SE3       30.14S

$$

VAZ055>057-220300-
NORTH AND CENTRAL PIEDMONT

CITY           SKY/WX    TMP DP  RH WIND       PRES   REMARKS
FREDERICKSBRG* MOCLDY    48  40  72 CALM      30.15S
STAFFORD*      CLOUDY    44  37  78 CALM      30.20R

$$

NCZ024-NYZ072-PAZ021-071-VAZ022-071-220300-
OTHER REGIONAL OBSERVATIONS

CITY           SKY/WX    TMP DP  RH WIND       PRES   REMARKS
NEW YORK CITY  CLOUDY    43  32  65 VRB5      30.21F
PITTSBURGH     CLOUDY    60  45  57 S3        29.98F
ROANOKE        MOCLDY    53  38  56 SE7       30.15S
RICHMOND       MOCLDY    46  38  73 SE7       30.17F
RALEIGH        MOCLDY    50  36  58 NE3       30.15R

$$

ANZ530>537-220300-
MARINE OBSERVATIONS

STATION/POSITION TIME  TEMP    WIND        PRES
                       AIR SEA DIR/SP/G
                 (UTC) (F)     (DEG/KT/KT) (MB)
THOMAS PT LIGHT  0200   44 43  180/  8/  9   N/A
BALT KEY BRIDGE  0148   47     170/  9/ 10 1021.7R
COVE POINT       0148   44     190/ 12/ 14 1022.5F
LEWISETTA        0148   46 47  180/  7/  8 1021.9F
SOLOMONS ISLAND  0148   45 44  150/  6/  7   N/A
PINEY POINT      0148          170/  8/  9   N/A

$$





USA.gov is the U.S. government's official web portal to all federal, state and local government web resources and services.